INTELSAT 33E DEB, 62001

Orbit data source: Space-Track

INTELSAT 33E DEB, 62001 is space debris in GEO originally from a launch on Wed, 24 Aug 2016 UTC launched from the French Guiana (FRGUI). Debris objects in space refer to the collection of defunct objects orbiting the Earth. Examples of debris include non-operational satellites, rocket bodies, and fragments generated from explosions, collisions, or faulty payload assembly.

Not visible in the next 10 days
Identifier
62001, 2016-053T
Orbit
GEO
Country
Flag of USUS / ITSO
Related business
Manufacturer
Boeing/ES
Mission
Spacecraft
Bus & Motor
Unknown
Mass
Unknown
Launch date (UTC)
Icon of a cake. It is the launch day of the satellite!2016-08-24 (10 years ago)
Launch vehicle
Unknown
Launch site
French Guiana (FRGUI)
Object type
Payload
Rocket body
Debris
Shape & HBR
Unknown shape, 1.1 m
Radar Cross Section
RCS unknown

Expand to show TLE details & history
Last TLE update: 2 days ago

TLE from 2 days ago
0 INTELSAT 33E DEB
1 62001U 16053T   26234.17731605  .00000152  00000-0  00000-0 0  9999
2 62001   1.5857  67.3372 0055660 358.7836   1.6526  1.00257161  6747
Epoch: 2026-08-22T04:15Z
TLE epoch observation values (Epoch: 2026-08-22T04:15:20.106Z)
Latitude
0.00001°
Longitude
33.46937°
Altitude
35,556.473 km
Speed
3.092 km/s
True Right ascension
04h 31m 10s
True Declination
0° 00' 00"
Sunlit
Object was in daylight at epoch
Visualization orbit readout
Latitude
Unknown
Longitude
Unknown
Altitude
Unknown
Speed
Unknown
Apparent Right ascension
Unknown
Apparent Declination
Unknown
Sunlit
N/A
Visualization observer readout
Local Sidereal Time
17:50:12
Azimuth
Unknown
Elevation
Unknown
Doppler factor
Unknown
Orbital elements
Apogee altitude
36,026.482 km
Perigee altitude
35,557.047 km
Semi-major axis
42,169.901 km
Eccentricity
0.00557
Inclination
1.5857°
RAAN
67.3372°
Arg. of periapsis
358.7836°
True anomaly
1.67112°
Mean anomaly
1.6526°
Eccentric anomaly
1.66185°
Mean motion
0.25063 °/min
Orbital period
1,436.36 mins
BSTAR
0
Loading maneuver chart data...
Computing Atmospheric mass density...
Loading historical data...
Loading historical data...
Loading historical data...
Loading historical data...
Loading historical data...
Loading historical data...
Loading historical data...

Documentation

Showing up to 5 results
|